Terminal Aerodrome Forecast
Issued by NWS Duluth, MN

Home | Current Version | Previous Version | Text Only | Print | Product List | Glossary On
Versions: 1 2 3 4 5 6 7 8 9 10 11 12 13 14 15 16 17 18 19 20 21
000
FTUS43 KDLH 301736
TAFINL
TAF
KINL 301736Z 3018/3118 28014G24KT P6SM VCTS BKN050CB
     FM310100 29007KT P6SM SCT050
     FM311500 30012G22KT P6SM SCT040=

USA.gov is the U.S. government's official web portal to all federal, state and local government web resources and services.